Volver al catálogo

STARLINK-31780

ActivoComunicacionesVLEO
NORAD 59432·PAYLOAD·🇺🇸 United States

Lanzado Apr 7, 2024 desde Vandenberg Space Force Base

Loading…

Próximos Pases (próximas 24 horas)

TLE

ActualizadoSource: CelesTrak SupGP

Época: Sep 15, 2026, 01:53 UTC

1 59432C 24065M   26258.07895833  .00034470  00000+0  10187-2 0  2580
2 59432  53.1567 118.7466 0001277  84.8871 193.8433 15.34365278    14

Sigue STARLINK-31780 en tiempo real con AllMySat

Download on the App Store